This demonstration page uses our WeatherBlox Daily Observations layout. Learn more.

Left ArrowRight Arrow

38.88101, -77.10428

Hourly Observations for January 12, 2022

Temp ( °F °C ) Dew Point ( °F °C ) Humidity (%) Winds ( mph kmh ) Pressure ( in mb ) Visibility ( mi km ) Precip ( " mm )
12:52 am 00:52 Clear 25 -3.9 10 -12.2 53 53 SSW 8 13 30.45 1031 10 16 0.00 0.00
1:52 am 01:52 Clear 23 -5 9 -12.8 55 55 SSW 9 15 30.45 1031 10 16 0.00 0.00
2:52 am 02:52 Clear 25 -3.9 11 -11.7 55 55 SSW 10 17 30.41 1030 10 16 0.00 0.00
3:52 am 03:52 Clear 25 -3.9 13 -10.6 60 60 SSW 10 17 30.36 1028 10 16 0.00 0.00
4:52 am 04:52 Clear 25 -3.9 13 -10.6 60 60 SSW 9 15 30.36 1028 10 16 0.00 0.00
5:52 am 05:52 Clear 27 -2.8 14 -10 58 58 S 12 19 30.32 1027 10 16 0.00 0.00
6:52 am 06:52 Partly Cloudy 27 -2.8 13 -10.6 55 55 SSW 13 20 30.29 1026 10 16 0.00 0.00
7:52 am 07:52 Partly Cloudy 28 -2.2 14 -10 56 56 SSW 16 26 30.27 1025 10 16 0.00 0.00
8:52 am 08:52 Mostly Cloudy 31 -0.6 14 -10 49 49 SSW 14 22 30.27 1025 10 16 0.00 0.00
9:52 am 09:52 Mostly Cloudy 34 1.1 14 -10 44 44 SSW 15 24 30.25 1024 10 16 0.00 0.00
10:52 am 10:52 Mostly Cloudy 37 2.8 14 -10 39 39 SSW 16 26 30.22 1024 10 16 0.00 0.00
11:52 am 11:52 Mostly Cloudy 40 4.4 16 -8.9 38 38 SSW 12 19 30.19 1022 10 16 0.00 0.00
12:52 pm 12:52 Mostly Cloudy 44 6.7 17 -8.3 34 34 SSW 12 19 30.14 1021 10 16 0.00 0.00
1:52 pm 13:52 Mostly Cloudy 45 7.2 18 -7.8 34 34 S 14 22 30.11 1020 10 16 0.00 0.00
2:52 pm 14:52 Mostly Cloudy 47 8.3 19 -7.2 33 33 SSW 13 20 30.10 1019 10 16 0.00 0.00
3:52 pm 15:52 Mostly Cloudy 46 7.8 19 -7.2 34 34 S 13 20 30.09 1019 10 16 0.00 0.00
4:52 pm 16:52 Mostly Cloudy 41 5 25 -3.9 53 53 S 10 17 30.09 1019 10 16 0.00 0.00
5:52 pm 17:52 Mostly Cloudy 41 5 24 -4.4 51 51 S 8 13 30.09 1019 10 16 0.00 0.00
6:52 pm 18:52 Mostly Cloudy 42 5.6 21 -6.1 43 43 S 6 9 30.10 1019 10 16 0.00 0.00
7:52 pm 19:52 Mostly Cloudy 42 5.6 23 -5 47 47 Calm 30.10 1019 10 16 0.00 0.00
8:52 pm 20:52 Mostly Cloudy 38 3.3 25 -3.9 60 60 NE 3 6 30.11 1020 10 16 0.00 0.00
9:52 pm 21:52 Mostly Cloudy 37 2.8 24 -4.4 59 59 Calm 30.10 1019 10 16 0.00 0.00
10:52 pm 22:52 Cloudy 36 2.2 25 -3.9 64 64 SSW 3 6 30.09 1019 10 16 0.00 0.00
11:52 pm 23:52 Cloudy 36 2.2 25 -3.9 64 64 SW 3 6 30.08 1019 10 16 0.00 0.00

Powered by AerisWeather